sat.trackr.live / text

‹ back to catalog

STARLINK-37316

NORAD 68673 · 2026-077M

PAYLOAD ACTIVE UNKNOWN

§ Identity

Operator
Country
US
Launch date
2026-04-11
Launch site
AFWTR
Launch vehicle
Mass (kg)
RCS (m²)

Purposes: comms

External: N2YO · Heavens-Above · Gunter

§ Orbital elements

Epoch: 2026-05-25T03:13:21.468000Z

Period
93.91 min
Inclination
97.2871°
Eccentricity
0.0001939
Mean motion
15.33457167 rev/d
Perigee alt
464.2 km
Apogee alt
466.8 km
Semi-major
6,843.6 km
B*
5.1001e-4
RAAN
16.7152°
Arg perigee
97.5158°
Mean anomaly
262.6305°
Rev number
687

§ Raw data

STARLINK-373161 68673U 26077M   26145.13427625  .00016433  00000+0  51001-3 0  99962 68673  97.2871  16.7152 0001939  97.5158 262.6305 15.33457167  6872

JSON: /api/v1/satellites/68673 · /tle

For live sub-satellite position, see the globe view (requires WebGL).

§ Visibility from observer

Set your observer location to see the next 7 days of passes ≥ 10°. The values pass through the URL so the page stays shareable.

No JS? Fill the form by hand. The geolocation button needs JavaScript.